Regional Weather Roundup
Issued by NWS

Home | Current Version | Previous Version | Graphics & Text | Print | Product List | Glossary On
Versions: 1 2 3 4 5 6 7 8 9 10 11 12 13 14 15 16 17 18 19 20 21 22 23 24 25 26 27
000
ASUS45 KTFX 271510
RWRMT
MONTANA REGIONAL WEATHER ROUNDUP
NATIONAL WEATHER SERVICE GREAT FALLS MT
900 AM MDT THU JUL 27 2017

NOTE: "FAIR" INDICATES FEW OR NO CLOUDS BELOW 12000 FEET WITH NO
SIGNIFICANT WEATHER AND/OR OBSTRUCTIONS TO VISIBILITY.

MTZ001>007-043-271600-
WEST OF THE DIVIDE

CITY           SKY/WX    TMP DP  RH WIND       PRES   REMARKS
KALISPELL      SUNNY     68  44  42 NE3       30.06S
MISSOULA       PTSUNNY   69  52  54 SE6       30.11R
BUTTE          SUNNY     63  45  51 NE3       30.24R
MULLAN PASS    MOSUNNY   67  35  30 CALM      30.23S
DEER LODGE       N/A     64  52  63 CALM      30.19F
EUREKA           N/A     72  39  30 MISG      30.03F
HAMILTON         N/A     66  48  52 S13G18    30.13R
LIBBY            N/A     68  39  34 CALM      30.04S
PLAINS           N/A     62  49  62 CALM      30.07
$$

MTZ008-052>055-271600-
SOUTHWEST MONTANA

CITY           SKY/WX    TMP DP  RH WIND       PRES   REMARKS
BOZEMAN        SUNNY     69  52  54 SE3       30.16S
DILLON         SUNNY     62  52  69 SW10      30.22R
W YELLOWSTONE  FOG       50  50 100 CALM      30.34S VSB 1/2
ENNIS          SUNNY     66  48  52 S7        30.27S
THREE FORKS      N/A     69  53  56 CALM      30.13S
TWIN BRIDGES     N/A     62  50  65 CALM      30.17S
$$

MTZ009-010-012-014-046-048-049-054-271600-
EAST SLOPES AND CENTRAL MONTANA

CITY           SKY/WX    TMP DP  RH WIND       PRES   REMARKS
CUT BANK       PTSUNNY   73  43  33 NW9       30.05S
GREAT FALLS    CLOUDY    75  45  34 SW8       30.06R
MALMSTROM AFB  PTSUNNY   74  46  37 SW12      30.04F
HELENA         CLOUDY    74  51  44 N3        30.11S
CHOTEAU          N/A     73  41  31 S6        30.09R
CONRAD           N/A     70  48  45 N2        30.07R
$$

MTZ011-013-016-021-045-047-050-051-271600-
NORTH CENTRAL MONTANA

CITY           SKY/WX    TMP DP  RH WIND       PRES   REMARKS
HAVRE          CLOUDY    73  50  44 E10       29.98R
LEWISTOWN      CLOUDY    74  48  39 SE5       30.09R
N BAR RANCH    CLOUDY    70  52  52 S5        30.13S
CHINOOK          N/A     72  52  49 E10       29.98S
WINIFRED       PTSUNNY   76  49  39 NE10      30.05R
$$

MTZ017>020-022>027-061-062-271600-
NORTHEAST MONTANA

CITY           SKY/WX    TMP DP  RH WIND       PRES   REMARKS
GLASGOW        PTSUNNY   75  51  43 E22G29    29.98S
JORDAN           N/A     73  49  42 CALM      29.99R
SIDNEY         MOSUNNY   72  56  57 SE21G31   30.07F
WOLF POINT     PTSUNNY   78  54  43 E22G31    30.03R
MALTA          SUNNY     75  52  43 SE8       29.98S
PLENTYWOOD       N/A     68  57  68 SE15      30.10R
POPLAR           N/A     72  55  56 SE18G28   30.04R
SCOBEY           N/A     70  49  47 SE12      30.04
$$

MTZ028>42-056>058-271600-
SOUTHCENTRAL AND SOUTHEAST MONTANA

CITY           SKY/WX    TMP DP  RH WIND       PRES   REMARKS
BAKER          SUNNY     82  52  35 S14       30.08S
BILLINGS       PTSUNNY   72  53  51 SW7       30.07R
LIVINGSTON     SUNNY     74  48  39 SW18      30.14S
MILES CITY     CLOUDY    79  55  43 SE10      30.00S
BIG TIMBER     SUNNY     73  48  40 W22       30.13F
EKALAKA          N/A     80  54  40 SE8       30.07
FORSYTH          N/A     77  54  44 SW5       30.01R
LAUREL           N/A     71  56  59 S2        30.07F
$$

REGIONAL REPORTS...DAKOTAS

CITY           SKY/WX    TMP DP  RH WIND       PRES   REMARKS
WILLISTON      LGT RAIN  66  60  81 SE14      30.08F
MINOT          CLOUDY    71  59  65 S10       30.11S
DICKINSON      SUNNY     74  58  57 SE22G29   30.10F
BEACH            N/A     72  54  53 E17       30.12S
CROSBY           N/A     75  57  53 S15G21    30.08F
TIOGA            N/A     64  64 100 S12       30.12R
WATFORD CITY   TSTM      63  59  88 SE21G30   30.12R
BISMARCK       CLOUDY    72  61  68 SE5       30.14F
GRAND FORKS    PTSUNNY   72  64  76 W5        30.13S
FARGO          SUNNY     75  62  64 VRB6      30.13F
BUFFALO SD       N/A     79  59  50 S13       30.03F
RAPID CITY     CLOUDY    76  62  62 S14       30.15S
$$

REGIONAL REPORTS...WYOMING/IDAHO/WASHINGTON

CITY           SKY/WX    TMP DP  RH WIND       PRES   REMARKS
GILLETTE       SUNNY     76  60  57 S20       30.12S
SHERIDAN       CLOUDY    70  56  61 N6        30.10S
BUFFALO WY     CLOUDY    73  57  57 SE3       30.15S
CODY           SUNNY     75  47  36 W8        30.18
YELLOWSTONE LA   N/A     57  51  80 CALM      30.41F
IDAHO FALLS    PTSUNNY   62  58  86 W5        30.24R
BOISE          MOSUNNY   71  52  50 VRB6      30.11R
SPOKANE        MOSUNNY   67  50  54 S10       30.03R
$$

REGIONAL REPORTS...ALBERTA

CITY           SKY/WX    TMP DP  RH WIND       PRES   REMARKS
EDMONTON       MOSUNNY   64  57  77 NE2       29.88F
CALGARY        MOSUNNY   70  46  43 S5        29.97S
LETHBRIDGE     PTSUNNY   79  41  25 SW14      29.98R
MEDICINE HAT   PTSUNNY   79  55  44 SW7       29.93F
$$

REGIONAL REPORTS...SASKATCHEWAN

CITY           SKY/WX    TMP DP  RH WIND       PRES   REMARKS
SWIFT CURRENT  SUNNY     77  55  47 SE12      30.01S
REGINA         MOSUNNY   72  55  56 SE15      30.05F
SASKATOON      MOSUNNY   72  55  56 SE6       30.02F
$$




USA.gov is the U.S. government's official web portal to all federal, state and local government web resources and services.